VE2YMM-13 Weather Reports


Display with metric or nautical units.
time (UTC)temp
F
wind
direction
speed
MPH
gust
MPH
rain 1hr
in
rain 24hr
in
rain mn
in
humidity
%
barometer
mb
20260504060156 49 248 5.0 9.0 0.00 0.00 0.00 63 1006.0
20260504050617 48 248 5.0 8.0 0.00 0.00 0.00 58 1006.3
20260504050138 48 203 5.0 8.0 0.00 0.00 0.00 58 1006.3
20260504045618 48 248 4.0 7.0 0.00 0.00 0.00 58 1006.3
20260504045117 48 248 3.0 8.0 0.00 0.00 0.00 57 1006.4
20260504044638 47 225 3.0 4.0 0.00 0.00 0.00 57 1006.4
20260504044117 47 203 2.0 2.0 0.00 0.00 0.00 57 1006.4
20260504043617 47 203 2.0 4.0 0.00 0.00 0.00 57 1006.4
20260504043117 47 225 3.0 4.0 0.00 0.00 0.00 57 1006.6
20260504042618 47 225 3.0 4.0 0.00 0.00 0.00 58 1006.6
20260504042117 47 248 2.0 3.0 0.00 0.00 0.00 58 1006.7
20260504041618 47 225 2.0 3.0 0.00 0.00 0.00 58 1006.6
20260504041117 47 270 1.0 2.0 0.00 0.00 0.00 57 1006.6
20260504040617 47 225 3.0 3.0 0.00 0.00 0.00 57 1006.6
20260504040117 48 225 2.0 3.0 0.00 0.00 0.00 57 1006.5
20260504035617 48 225 2.0 4.0 0.00 0.00 0.00 57 1006.5
20260504035118 48 248 1.0 3.0 0.00 0.00 0.00 56 1006.5
20260504034617 48 248 2.0 3.0 0.00 0.00 0.00 56 1006.5
20260504034158 48 225 3.0 5.0 0.00 0.00 0.00 56 1006.5
20260504033617 48 180 1.0 2.0 0.00 0.00 0.00 54 1006.5
20260504033117 48 225 1.0 3.0 0.00 0.00 0.00 54 1006.5
20260504032618 49 225 3.0 5.0 0.00 0.00 0.00 54 1006.6
20260504032118 49 203 2.0 4.0 0.00 0.00 0.00 53 1006.6
20260504031658 49 248 3.0 6.0 0.00 0.00 0.00 53 1006.6
20260504031118 49 225 3.0 4.0 0.00 0.00 0.00 52 1006.7
20260504030638 49 248 2.0 4.0 0.00 0.00 0.00 51 1006.7
20260504030117 49 180 4.0 6.0 0.00 0.00 0.00 51 1006.7
20260504025618 49 225 2.0 7.0 0.00 0.00 0.00 51 1006.7
20260504025117 49 203 2.0 3.0 0.00 0.00 0.00 51 1006.8
20260504024618 50 225 3.0 5.0 0.00 0.00 0.00 51 1006.8
20260504024117 50 180 2.0 6.0 0.00 0.00 0.00 50 1006.8
20260504023617 50 270 2.0 3.0 0.00 0.00 0.00 50 1006.8
20260504023117 50 225 3.0 5.0 0.00 0.00 0.00 49 1006.9
20260504022617 50 248 2.0 4.0 0.00 0.00 0.00 48 1006.9
20260504022117 50 248 3.0 5.0 0.00 0.00 0.00 48 1006.9
20260504021618 51 270 2.0 4.0 0.00 0.00 0.00 47 1007.0
20260504021137 51 248 3.0 5.0 0.00 0.00 0.00 47 1007.0
20260504020617 51 225 4.0 5.0 0.00 0.00 0.00 47 1007.1
20260504020118 51 248 5.0 9.0 0.00 0.00 0.00 46 1007.2
20260504015617 51 248 2.0 4.0 0.00 0.00 0.00 46 1007.2
20260504015118 51 270 3.0 5.0 0.00 0.00 0.00 46 1007.2
20260504014617 51 225 5.0 8.0 0.00 0.00 0.00 46 1007.3
20260504014157 51 248 7.0 10.0 0.00 0.00 0.00 46 1007.3
20260504013617 52 248 4.0 8.0 0.00 0.00 0.00 46 1007.3
20260504013117 52 225 8.0 16.0 0.00 0.00 0.00 45 1007.3
20260504012617 52 225 4.0 6.0 0.00 0.00 0.00 45 1007.4
20260504012117 52 225 4.0 7.0 0.00 0.00 0.00 45 1007.3
20260504011637 52 225 7.0 15.0 0.00 0.00 0.00 45 1007.3
20260504011117 52 248 3.0 3.0 0.00 0.00 0.00 44 1007.3
20260504010617 52 225 4.0 6.0 0.00 0.00 0.00 44 1007.3
20260504010117 52 248 4.0 5.0 0.00 0.00 0.00 43 1007.3
20260504005617 52 248 2.0 4.0 0.00 0.00 0.00 43 1007.3
20260504005117 53 203 2.0 3.0 0.00 0.00 0.00 43 1007.2
20260504004617 53 225 4.0 7.0 0.00 0.00 0.00 42 1007.1
20260504004117 53 270 4.0 7.0 0.00 0.00 0.00 42 1007.1
20260504003617 53 203 3.0 6.0 0.00 0.00 0.00 42 1007.1
20260504003117 53 225 4.0 7.0 0.00 0.00 0.00 42 1007.1
20260504002617 53 248 4.0 8.0 0.00 0.00 0.00 42 1007.0
20260504002117 53 225 1.0 2.0 0.00 0.00 0.00 42 1007.1
20260504001638 53 225 6.0 10.0 0.00 0.00 0.00 41 1007.0
20260504001117 53 225 3.0 4.0 0.00 0.00 0.00 41 1007.0
20260504000617 53 270 4.0 8.0 0.00 0.00 0.00 40 1007.0
20260504000117 54 270 3.0 4.0 0.00 0.00 0.00 39 1007.0
20260503235617 54 225 6.0 14.0 0.00 0.00 0.00 38 1007.0
20260503235117 54 225 5.0 8.0 0.00 0.00 0.00 38 1006.9
20260503234637 54 248 4.0 6.0 0.00 0.00 0.00 38 1006.9
20260503234137 54 248 2.0 3.0 0.00 0.00 0.00 38 1006.8
20260503233617 54 225 2.0 3.0 0.00 0.00 0.00 39 1006.8
20260503233117 54 248 3.0 5.0 0.00 0.00 0.00 38 1006.8
20260503232637 54 248 4.0 9.0 0.00 0.00 0.00 38 1006.8
20260503232117 54 270 2.0 3.0 0.00 0.00 0.00 38 1006.8
20260503231637 54 270 5.0 8.0 0.00 0.00 0.00 36 1006.8
20260503231137 55 248 5.0 10.0 0.00 0.00 0.00 36 1006.8
20260503230617 55 248 5.0 8.0 0.00 0.00 0.00 36 1006.8
20260503230117 55 270 6.0 8.0 0.00 0.00 0.00 37 1006.8
20260503225617 55 270 3.0 5.0 0.00 0.00 0.00 36 1006.8
20260503225116 55 248 8.0 13.0 0.00 0.00 0.00 35 1006.8
20260503224617 55 270 4.0 6.0 0.00 0.00 0.00 35 1006.8
20260503224117 55 248 6.0 8.0 0.00 0.00 0.00 35 1006.8
20260503223617 56 248 5.0 9.0 0.00 0.00 0.00 34 1006.9
20260503223117 56 270 4.0 8.0 0.00 0.00 0.00 33 1006.8
20260503222617 56 270 3.0 6.0 0.00 0.00 0.00 36 1006.8
20260503222117 56 270 4.0 9.0 0.00 0.00 0.00 34 1006.8
20260503221616 56 248 4.0 7.0 0.00 0.00 0.00 34 1006.8
20260503221117 56 293 4.0 9.0 0.00 0.00 0.00 34 1006.8
20260503220617 56 270 4.0 7.0 0.00 0.00 0.00 35 1006.9
20260503220116 56 270 7.0 9.0 0.00 0.00 0.00 34 1006.8
20260503215657 56 293 7.0 12.0 0.00 0.00 0.00 34 1006.8
20260503215117 56 248 5.0 9.0 0.00 0.00 0.00 33 1006.8
20260503214617 56 270 7.0 10.0 0.00 0.00 0.00 35 1006.8
20260503214116 56 248 5.0 7.0 0.00 0.00 0.00 34 1006.8
20260503213616 56 293 6.0 9.0 0.00 0.00 0.00 34 1006.9
20260503213117 55 225 4.0 7.0 0.00 0.00 0.00 35 1006.9
20260503212616 55 293 9.0 16.0 0.00 0.00 0.00 35 1006.9
20260503212116 55 315 7.0 10.0 0.00 0.00 0.00 35 1006.9
20260503211616 55 270 7.0 11.0 0.00 0.00 0.00 37 1006.8
20260503211117 55 248 5.0 17.0 0.00 0.00 0.00 38 1006.8
20260503210616 55 270 6.0 9.0 0.00 0.00 0.00 39 1006.8
20260503210257 54 270 4.0 6.0 0.00 0.00 0.00 38 1006.9
20260503205616 54 293 6.0 11.0 0.00 0.00 0.00 38 1006.8
20260503205116 54 270 7.0 12.0 0.00 0.00 0.00 38 1006.9
20260503204616 54 248 6.0 10.0 0.00 0.00 0.00 37 1006.9
20260503204116 54 293 3.0 7.0 0.00 0.00 0.00 38 1006.9
20260503203616 54 248 11.0 16.0 0.00 0.00 0.00 38 1006.9
20260503203117 54 270 4.0 8.0 0.00 0.00 0.00 38 1006.9
20260503202616 54 270 9.0 15.0 0.00 0.00 0.00 37 1007.0
20260503202117 54 293 8.0 11.0 0.00 0.00 0.00 37 1007.1
20260503201637 54 248 6.0 10.0 0.00 0.00 0.00 39 1007.1
20260503201117 53 248 5.0 8.0 0.00 0.00 0.00 38 1007.2
20260503200617 53 270 6.0 10.0 0.00 0.00 0.00 39 1007.2
20260503200116 53 293 6.0 12.0 0.00 0.00 0.00 39 1007.3
20260503195616 53 248 7.0 10.0 0.00 0.00 0.00 39 1007.3
20260503195116 54 248 8.0 12.0 0.00 0.00 0.00 39 1007.4
20260503194616 54 225 4.0 9.0 0.00 0.00 0.00 40 1007.4
20260503194116 54 248 7.0 11.0 0.00 0.00 0.00 40 1007.6
20260503193616 54 225 7.0 15.0 0.00 0.00 0.00 40 1007.6
20260503193116 53 270 5.0 9.0 0.00 0.00 0.00 40 1007.7
20260503192616 53 293 3.0 7.0 0.00 0.00 0.00 38 1007.8
20260503192116 54 225 10.0 14.0 0.00 0.00 0.00 39 1007.8
20260503191616 53 293 5.0 7.0 0.00 0.00 0.00 41 1007.9
20260503191116 53 248 6.0 8.0 0.00 0.00 0.00 40 1007.9
20260503190636 53 248 6.0 10.0 0.00 0.00 0.00 41 1007.9
20260503190116 53 270 8.0 12.0 0.00 0.00 0.00 40 1007.9
20260503185637 53 293 3.0 5.0 0.00 0.00 0.00 41 1008.0
20260503185116 53 248 7.0 10.0 0.00 0.00 0.00 40 1008.1
20260503184636 53 248 6.0 11.0 0.00 0.00 0.00 41 1008.0
20260503184116 52 270 4.0 6.0 0.00 0.00 0.00 41 1008.1
20260503183616 52 248 7.0 13.0 0.00 0.00 0.00 41 1008.2
20260503183116 52 248 4.0 8.0 0.00 0.00 0.00 41 1008.3
20260503182616 52 293 5.0 10.0 0.00 0.00 0.00 41 1008.4
20260503182116 53 270 9.0 15.0 0.00 0.00 0.00 41 1008.5
20260503181616 52 293 4.0 7.0 0.00 0.00 0.00 44 1008.4
20260503181116 51 315 2.0 3.0 0.00 0.00 0.00 44 1008.5
20260503180616 51 270 4.0 8.0 0.00 0.00 0.00 44 1008.6
20260503180116 51 293 3.0 7.0 0.00 0.00 0.00 44 1008.6
20260503175616 51 270 2.0 4.0 0.00 0.00 0.00 43 1008.7
20260503175116 52 338 6.0 10.0 0.00 0.00 0.00 45 1008.7
20260503174616 51 248 5.0 8.0 0.00 0.00 0.00 46 1008.8
20260503174136 51 315 3.0 7.0 0.00 0.01 0.00 47 1008.8
20260503173616 50 270 4.0 6.0 0.00 0.03 0.00 48 1008.9
20260503173136 50 270 4.0 7.0 0.00 0.06 0.00 48 1009.0
20260503172616 50 270 7.0 10.0 0.00 0.08 0.00 48 1009.0
20260503172116 50 248 6.0 9.0 0.00 0.08 0.00 48 1009.0
20260503171616 50 270 5.0 9.0 0.00 0.08 0.00 50 1009.2
20260503171116 50 270 4.0 6.0 0.00 0.08 0.00 49 1009.2
20260503170616 50 248 10.0 14.0 0.00 0.08 0.00 48 1009.3
20260503170116 50 248 5.0 8.0 0.00 0.08 0.00 49 1009.3
20260503160116 50 270 6.0 10.0 0.00 0.08 0.00 50 1010.2
20260503150618 49 203 2.0 3.0 0.00 0.08 0.00 48 1010.8
20260503150158 49 225 5.0 8.0 0.00 0.08 0.00 49 1010.8
20260503140117 48 270 2.0 4.0 0.00 0.08 0.00 56 1011.4
20260503131118 45 270 1.0 2.0 0.00 0.08 0.00 67 1011.9
20260503130617 44 315 1.0 2.0 0.00 0.08 0.00 68 1011.8
20260503130117 44 270 2.0 3.0 0.00 0.08 0.00 68 1011.8
20260503120158 42 0.0 0.0 0.00 0.10 0.00 74 1011.8
20260503110617 40 338 1.0 3.0 0.00 0.13 0.00 78 1011.6
20260503110117 40 338 1.0 2.0 0.00 0.13 0.00 78 1011.5
20260503100116 40 338 1.0 2.0 0.00 0.16 0.00 83 1011.3
20260503090116 40 270 1.0 2.0 0.00 0.17 0.00 85 1011.5
20260503081636 40 293 1.0 1.0 0.00 0.18 0.00 84 1011.6
20260503081117 40 293 1.0 2.0 0.00 0.18 0.00 84 1011.6
20260503080637 40 293 1.0 2.0 0.00 0.18 0.00 84 1011.6
20260503080116 40 293 1.0 2.0 0.00 0.18 0.00 83 1011.6
20260503072637 41 0.0 0.0 0.00 0.18 0.00 82 1011.6
20260503072116 41 0.0 1.0 0.00 0.18 0.00 82 1011.7
20260503071616 41 0.0 0.0 0.00 0.18 0.00 82 1011.6
20260503071116 41 0.0 1.0 0.00 0.18 0.00 81 1011.6
20260503070616 42 0.0 0.0 0.00 0.18 0.00 81 1011.7
20260503070116 42 0.0 0.0 0.00 0.18 0.00 81 1011.7